Temp
12 12 11 11 10 11 10 10 10 10 10 10 9 9 9 10 10 11 11 11 11 11 12 12 13 13 15 16 17 16 17 16 15 16 14 15 14 14 12 14 13 13
11 11 10 10 10 10 10 10 9 9 8 9 9 9 9 9 9 10 9 9 10 10 10 11 11 12 13 14 16 15 16 14 13 16 14 14 14 13 12 13 12 13
10 9 8 8 7 8 8 8 8 8 7 7 8 8 8 8 7 8 9 9 8 9 9 9 9 10 11 12 15 15 14 12 11 14 13 13 14 12 11 13 12 12
8 8 7 7 7 7 7 6 6 7 6 6 6 7 7 7 7 7 8 8 8 7 8 8 8 9 9 11 13 13 12 11 12 12 11 12 12 12 10 12 10 11
7 7 7 6 6 6 6 5 5 5 4 5 5 6 6 5 5 6 6 6 7 6 6 6 7 7 8 9 11 13 13 10 10 10 9 9 11 11 10 10 8 9
7 7 6 6 5 5 4 3 4 4 3 4 5 4 5 5 4 5 5 4 5 4 4 5 5 5 7 8 10 11 12 10 8 8 7 7 8 9 10 10 8 7
5 5 5 5 4 4 3 3 3 3 3 4 4 3 5 3 4 4 4 4 3 3 3 3 3 3 4 6 7 8 10 10 6 7 6 6 7 6 9 9 8 7
3 4 4 3 3 2 2 2 2 2 2 2 1 2 3 2 2 3 3 3 2 2 2 2 3 2 3 4 4 6 7 10 8 6 5 5 6 4 6 7 8 6
3 3 3 2 1 1 1 1 1 1 2 0 0 1 2 2 2 2 2 2 1 1 1 1 1 1 2 2 2 4 4 6 9 6 4 4 4 4 4 5 5 6
2 2 1 1 0 1 -0 0 0 0 0 -1 -1 0 -1 0 1 1 1 0 -0 -0 0 -0 0 0 0 0 1 1 2 4 7 7 4 3 4 4 3 3 3 4
0 1 -0 -0 -0 -0 -1 -1 -1 -1 -1 -2 -2 -2 -1 -1 -1 0 -1 -0 -1 -1 -0 -1 -1 -1 -1 -1 0 1 1 3 5 6 3 3 4 4 5 3 2 3
-1 -1 -2 -2 -1 -2 -2 -2 -2 -2 -3 -3 -2 -3 -3 -2 -2 -2 -1 -1 -1 -1 -1 -1 -1 -1 -2 -2 -2 -1 0 2 4 6 4 2 3 4 4 3 2 2
-3 -3 -3 -3 -3 -3 -3 -3 -4 -4 -4 -4 -3 -4 -4 -4 -3 -4 -3 -1 -1 -1 -1 -1 -1 -2 -2 -2 -2 -2 -0 2 5 6 3 2 2 4 4 4 3 2
-5 -5 -5 -4 -4 -4 -4 -4 -4 -4 -4 -4 -4 -5 -5 -5 -5 -4 -3 -2 -2 -2 -1 -1 -2 -2 -2 -3 -2 -1 1 4 7 5 3 1 1 2 3 3 3 2
-6 -6 -6 -6 -5 -6 -5 -5 -5 -5 -5 -5 -5 -6 -5 -5 -5 -4 -5 -4 -3 -3 -3 -2 -3 -3 -3 -3 -2 1 5 7 7 3 1 0 0 0 2 3 2 2
-6 -7 -7 -7 -7 -7 -6 -6 -6 -6 -6 -7 -6 -6 -7 -6 -6 -5 -6 -6 -5 -5 -4 -4 -4 -4 -1 1 4 6 7 7 5 2 1 -1 -1 -2 -1 1 2 2
-8 -8 -8 -8 -7 -7 -7 -7 -6 -7 -8 -7 -8 -8 -8 -7 -7 -8 -7 -6 -6 -7 -7 -6 -6 -4 -1 6 9 10 7 6 3 1 -0 -2 -2 -4 -3 -1 0 1
-8 -7 -9 -8 -8 -7 -7 -8 -8 -9 -9 -8 -9 -9 -8 -8 -9 -9 -8 -8 -8 -8 -8 -8 -7 -4 2 6 8 10 9 6 1 0 -2 -4 -5 -6 -4 -3 -2 -1
-8 -9 -9 -9 -9 -9 -8 -9 -9 -9 -10 -10 -10 -9 -9 -10 -10 -9 -10 -9 -9 -10 -10 -9 -9 -5 1 5 7 9 10 7 -0 -0 -4 -5 -7 -9 -7 -6 -4 -3
-8 -9 -9 -9 -9 -8 -9 -10 -10 -10 -10 -10 -10 -9 -10 -11 -11 -11 -10 -11 -11 -11 -11 -11 -10 -7 -0 5 7 8 9 9 -1 -1 -5 -7 -10 -10 -8 -8 -6 -6
-8 -9 -9 -9 -8 -9 -10 -11 -11 -11 -10 -10 -11 -11 -11 -12 -12 -13 -12 -11 -12 -12 -12 -12 -11 -6 1 4 6 7 8 7 -3 -6 -10 -13 -13 -12 -11 -10 -8 -7
-8 -9 -9 -9 -9 -10 -11 -11 -11 -11 -12 -11 -11 -11 -11 -11 -12 -12 -13 -13 -12 -13 -13 -14 -11 -7 0 3 4 5 7 2 -3 -11 -13 -14 -15 -14 -13 -12 -10 -9
-8 -9 -9 -10 -10 -11 -12 -12 -11 -12 -12 -11 -13 -12 -12 -12 -13 -13 -12 -13 -13 -13 -14 -14 -13 -9 -4 1 3 5 4 -0 -6 -12 -14 -14 -16 -15 -13 -13 -12 -9
-8 -9 -10 -11 -12 -13 -13 -11 -12 -12 -12 -12 -13 -14 -14 -13 -13 -14 -13 -13 -13 -14 -13 -14 -13 -10 -8 -4 2 4 2 -2 -6 -12 -16 -17 -16 -16 -15 -16 -12 -5
-8 -9 -11 -12 -13 -13 -13 -14 -13 -13 -13 -13 -13 -14 -14 -14 -13 -14 -14 -13 -14 -14 -11 -12 -13 -12 -9 -7 0 3 1 -3 -6 -14 -15 -14 -15 -15 -17 -16 -15 -10
-9 -10 -11 -13 -13 -14 -14 -14 -14 -14 -14 -14 -14 -14 -15 -15 -14 -15 -16 -15 -14 -14 -14 -14 -14 -14 -11 -7 -2 1 2 -3 -6 -13 -12 -14 -16 -17 -17 -19 -17 -17
MSLP
1045.16 1045.00 1044.88 1044.76 1044.72 1044.56 1044.40 1044.16 1043.92 1043.72 1043.48 1043.24 1043.12 1042.84 1042.56 1042.24 1041.92 1041.48 1041.12 1040.68 1040.36 1040.00 1039.56 1039.12 1038.68 1038.20 1037.64 1037.08 1036.64 1036.44 1036.04 1035.96 1035.76 1035.24 1035.24 1034.84 1034.56 1034.20 1033.96 1033.44 1033.24 1032.88
1045.56 1045.48 1045.36 1045.24 1045.08 1044.92 1044.76 1044.56 1044.40 1044.08 1043.92 1043.64 1043.44 1043.16 1042.80 1042.44 1042.16 1041.76 1041.40 1041.00 1040.60 1040.28 1039.88 1039.48 1039.00 1038.56 1038.04 1037.44 1036.84 1036.64 1036.28 1036.20 1036.12 1035.52 1035.48 1035.12 1034.80 1034.52 1034.32 1033.80 1033.60 1033.16
1045.96 1045.88 1045.68 1045.56 1045.40 1045.24 1045.04 1044.92 1044.64 1044.44 1044.24 1043.96 1043.64 1043.40 1043.04 1042.68 1042.36 1042.00 1041.64 1041.28 1040.92 1040.52 1040.12 1039.72 1039.32 1038.88 1038.40 1037.80 1037.16 1036.80 1036.52 1036.44 1036.28 1035.84 1035.72 1035.32 1034.92 1034.84 1034.68 1034.12 1033.92 1033.60
1046.16 1046.08 1045.96 1045.80 1045.60 1045.44 1045.24 1045.08 1044.84 1044.56 1044.40 1044.08 1043.76 1043.56 1043.20 1042.88 1042.56 1042.20 1041.80 1041.48 1041.20 1040.80 1040.40 1040.04 1039.60 1039.16 1038.68 1038.08 1037.44 1036.96 1036.68 1036.60 1036.36 1036.12 1035.92 1035.52 1035.20 1034.96 1034.92 1034.48 1034.32 1033.92
1046.24 1046.08 1046.00 1045.88 1045.76 1045.56 1045.32 1045.20 1044.96 1044.68 1044.52 1044.24 1043.92 1043.64 1043.28 1042.96 1042.72 1042.32 1041.96 1041.68 1041.36 1041.04 1040.64 1040.24 1039.80 1039.44 1038.96 1038.40 1037.76 1037.12 1036.76 1036.68 1036.52 1036.28 1036.12 1035.84 1035.44 1035.20 1034.96 1034.64 1034.56 1034.12
1046.40 1046.20 1046.16 1045.96 1045.84 1045.60 1045.40 1045.28 1045.04 1044.80 1044.60 1044.24 1044.00 1043.80 1043.44 1043.20 1042.96 1042.60 1042.24 1041.92 1041.60 1041.28 1040.92 1040.48 1040.12 1039.72 1039.28 1038.72 1038.12 1037.56 1036.92 1036.76 1036.64 1036.40 1036.28 1036.00 1035.64 1035.48 1035.04 1034.72 1034.60 1034.40
1046.56 1046.36 1046.24 1046.12 1046.00 1045.80 1045.64 1045.52 1045.28 1045.04 1044.84 1044.52 1044.20 1043.96 1043.52 1043.36 1043.00 1042.76 1042.40 1042.12 1041.80 1041.52 1041.16 1040.80 1040.40 1040.00 1039.60 1039.08 1038.52 1038.04 1037.40 1036.80 1036.72 1036.56 1036.36 1036.16 1035.72 1035.64 1035.20 1034.84 1034.64 1034.48
1046.72 1046.60 1046.44 1046.36 1046.20 1046.04 1045.88 1045.76 1045.52 1045.32 1045.04 1044.68 1044.48 1044.16 1043.76 1043.52 1043.16 1042.84 1042.52 1042.16 1041.92 1041.60 1041.28 1040.96 1040.64 1040.24 1039.88 1039.44 1039.00 1038.32 1037.80 1037.08 1036.68 1036.52 1036.44 1036.16 1035.84 1035.72 1035.32 1035.00 1034.76 1034.52
1046.88 1046.72 1046.56 1046.44 1046.32 1046.20 1046.08 1045.96 1045.72 1045.56 1045.28 1045.04 1044.76 1044.36 1044.00 1043.72 1043.32 1042.96 1042.60 1042.24 1041.96 1041.64 1041.32 1041.04 1040.68 1040.40 1040.04 1039.68 1039.24 1038.68 1038.16 1037.56 1036.80 1036.48 1036.36 1036.16 1035.92 1035.76 1035.48 1035.12 1034.88 1034.56
1047.00 1046.84 1046.76 1046.60 1046.52 1046.32 1046.28 1046.08 1045.92 1045.68 1045.44 1045.24 1044.92 1044.60 1044.24 1043.80 1043.52 1043.08 1042.68 1042.32 1041.96 1041.64 1041.32 1041.00 1040.72 1040.40 1040.08 1039.76 1039.40 1038.92 1038.44 1037.80 1037.04 1036.44 1036.24 1036.12 1035.92 1035.76 1035.56 1035.28 1035.04 1034.72
1047.04 1046.92 1046.84 1046.72 1046.60 1046.48 1046.40 1046.20 1046.00 1045.80 1045.56 1045.32 1044.96 1044.64 1044.32 1043.96 1043.52 1043.16 1042.80 1042.36 1042.00 1041.64 1041.28 1041.00 1040.72 1040.44 1040.16 1039.80 1039.36 1038.92 1038.48 1037.88 1037.16 1036.44 1036.16 1036.00 1035.84 1035.68 1035.56 1035.44 1035.20 1034.96
1047.12 1047.00 1046.96 1046.84 1046.68 1046.56 1046.40 1046.24 1046.08 1045.84 1045.60 1045.36 1045.04 1044.72 1044.36 1044.04 1043.60 1043.24 1042.92 1042.40 1042.00 1041.64 1041.32 1040.96 1040.64 1040.36 1040.16 1039.84 1039.40 1038.96 1038.40 1037.76 1037.00 1036.32 1036.08 1035.92 1035.80 1035.64 1035.56 1035.48 1035.28 1035.04
1047.12 1047.08 1047.00 1046.92 1046.76 1046.64 1046.48 1046.28 1046.08 1045.88 1045.64 1045.36 1045.08 1044.84 1044.44 1043.96 1043.64 1043.28 1042.88 1042.40 1041.96 1041.60 1041.32 1040.92 1040.56 1040.32 1040.04 1039.68 1039.32 1038.84 1038.24 1037.44 1036.60 1036.04 1036.04 1035.92 1035.76 1035.60 1035.48 1035.40 1035.28 1035.08
1047.16 1047.12 1047.08 1046.96 1046.84 1046.68 1046.52 1046.32 1046.08 1045.84 1045.64 1045.40 1045.12 1044.84 1044.44 1044.08 1043.72 1043.28 1042.84 1042.40 1042.00 1041.60 1041.28 1040.88 1040.56 1040.24 1039.88 1039.52 1039.12 1038.60 1037.76 1036.84 1036.00 1035.92 1036.00 1035.92 1035.80 1035.60 1035.40 1035.32 1035.20 1035.04
1047.24 1047.20 1047.12 1047.00 1046.88 1046.72 1046.48 1046.28 1046.04 1045.84 1045.56 1045.36 1045.16 1044.88 1044.52 1044.16 1043.80 1043.36 1042.84 1042.36 1041.96 1041.60 1041.20 1040.88 1040.56 1040.20 1039.84 1039.40 1038.84 1037.96 1037.00 1036.16 1035.76 1036.00 1035.96 1035.92 1035.84 1035.60 1035.36 1035.24 1035.08 1034.92
1047.40 1047.32 1047.16 1047.08 1046.92 1046.68 1046.52 1046.28 1046.00 1045.76 1045.48 1045.28 1045.04 1044.80 1044.52 1044.12 1043.72 1043.36 1043.00 1042.44 1041.96 1041.60 1041.24 1040.92 1040.56 1040.16 1039.68 1039.12 1038.20 1037.20 1036.48 1035.96 1035.80 1036.00 1036.00 1036.00 1035.88 1035.64 1035.40 1035.16 1034.96 1034.80
1047.44 1047.32 1047.20 1047.08 1046.88 1046.72 1046.48 1046.20 1045.92 1045.68 1045.48 1045.20 1044.96 1044.68 1044.40 1044.00 1043.68 1043.32 1042.84 1042.44 1042.04 1041.60 1041.24 1040.96 1040.60 1040.12 1039.56 1038.48 1037.44 1036.76 1036.32 1035.88 1035.96 1036.00 1036.08 1036.00 1035.88 1035.76 1035.48 1035.16 1034.92 1034.72
1047.40 1047.28 1047.16 1047.00 1046.84 1046.60 1046.36 1046.12 1045.92 1045.68 1045.44 1045.16 1044.88 1044.56 1044.20 1043.96 1043.60 1043.20 1042.80 1042.40 1042.00 1041.64 1041.32 1040.96 1040.56 1040.12 1039.32 1038.32 1037.48 1036.68 1036.08 1035.64 1036.00 1036.00 1036.12 1036.00 1035.92 1035.84 1035.60 1035.32 1035.00 1034.64
1047.32 1047.16 1047.00 1046.88 1046.68 1046.48 1046.24 1046.04 1045.84 1045.60 1045.32 1045.04 1044.76 1044.48 1044.16 1043.84 1043.48 1043.12 1042.76 1042.40 1042.04 1041.64 1041.24 1040.92 1040.52 1040.00 1039.28 1038.32 1037.40 1036.56 1035.88 1035.52 1035.96 1036.00 1036.12 1035.96 1035.96 1035.84 1035.64 1035.48 1035.20 1034.80
1047.20 1047.04 1046.88 1046.72 1046.56 1046.36 1046.16 1045.96 1045.76 1045.48 1045.28 1045.08 1044.72 1044.36 1044.08 1043.72 1043.44 1043.08 1042.72 1042.40 1042.00 1041.64 1041.28 1040.88 1040.44 1039.96 1039.24 1038.16 1037.20 1036.48 1035.92 1035.36 1035.88 1036.00 1036.12 1036.04 1035.96 1035.76 1035.68 1035.56 1035.36 1035.04
1047.08 1046.96 1046.80 1046.56 1046.40 1046.24 1046.04 1045.88 1045.64 1045.36 1045.12 1044.84 1044.56 1044.24 1043.88 1043.56 1043.20 1042.88 1042.60 1042.28 1041.96 1041.68 1041.28 1040.76 1040.32 1039.84 1039.00 1038.00 1037.20 1036.56 1035.96 1035.44 1035.96 1036.16 1036.12 1035.92 1035.84 1035.72 1035.68 1035.60 1035.40 1035.16
1047.00 1046.84 1046.64 1046.44 1046.24 1046.08 1045.92 1045.68 1045.40 1045.20 1044.92 1044.56 1044.32 1044.00 1043.68 1043.36 1043.04 1042.80 1042.40 1042.04 1041.76 1041.48 1041.04 1040.60 1040.12 1039.68 1038.92 1038.08 1037.32 1036.64 1035.92 1035.72 1035.80 1035.96 1035.92 1035.88 1035.72 1035.60 1035.60 1035.52 1035.36 1035.20
1046.96 1046.72 1046.48 1046.28 1046.12 1045.96 1045.76 1045.52 1045.16 1044.88 1044.72 1044.52 1044.08 1043.72 1043.36 1043.04 1042.76 1042.44 1042.16 1041.84 1041.44 1041.16 1040.80 1040.36 1039.96 1039.44 1038.96 1038.20 1037.44 1036.68 1036.04 1035.84 1035.80 1035.96 1035.92 1035.80 1035.72 1035.60 1035.48 1035.36 1035.24 1035.04
1046.80 1046.60 1046.36 1046.16 1046.08 1045.88 1045.60 1045.28 1045.12 1044.84 1044.60 1044.32 1044.00 1043.44 1043.04 1042.76 1042.48 1042.12 1041.80 1041.56 1041.20 1040.84 1040.56 1040.12 1039.60 1039.20 1038.84 1038.32 1037.48 1036.68 1036.12 1035.88 1035.76 1035.84 1035.80 1035.72 1035.56 1035.44 1035.36 1035.24 1035.08 1034.84
1046.68 1046.48 1046.32 1046.16 1045.96 1045.72 1045.56 1045.24 1044.92 1044.68 1044.36 1044.16 1043.80 1043.40 1042.92 1042.60 1042.24 1041.88 1041.44 1041.16 1040.96 1040.60 1040.20 1039.88 1039.48 1039.08 1038.68 1038.24 1037.44 1036.60 1036.12 1035.96 1035.68 1035.72 1035.56 1035.44 1035.32 1035.12 1035.08 1035.00 1034.88 1034.84
1046.52 1046.36 1046.24 1046.12 1045.80 1045.52 1045.40 1045.12 1044.84 1044.52 1044.16 1043.84 1043.48 1043.20 1042.72 1042.32 1042.04 1041.72 1041.24 1040.80 1040.56 1040.28 1039.96 1039.68 1039.36 1038.92 1038.56 1038.08 1037.44 1036.68 1036.20 1035.96 1035.68 1035.64 1035.48 1035.28 1035.16 1034.88 1034.64 1034.68 1034.72 1034.64
Wind_Speed
9 8 8 8 8 8 8 9 9 9 8 8 9 9 9 10 12 12 12 11 11 11 12 11 11 11 11 10 8 9 8 11 9 9 10 10 10 11 11 12 12 10
10 9 8 7 6 7 7 8 8 9 9 9 8 9 9 10 11 11 11 11 11 11 11 10 11 11 11 10 8 8 8 8 10 8 10 11 9 10 11 12 11 11
8 9 8 8 8 8 8 7 7 6 7 8 8 8 8 8 10 11 10 10 10 11 10 10 10 10 11 10 9 6 6 7 7 9 9 9 9 9 10 10 9 11
7 7 7 7 7 7 7 7 7 6 7 7 8 8 8 7 10 10 10 11 10 11 11 10 10 10 10 11 10 4 5 4 6 7 7 8 7 7 8 8 10 9
8 7 8 7 7 8 6 8 9 8 8 8 7 9 8 8 9 9 10 10 10 11 10 10 10 10 11 10 11 7 5 3 6 5 6 7 7 8 7 7 9 9
7 7 8 8 9 9 8 9 9 9 10 9 10 9 8 9 8 10 10 10 9 10 10 9 10 10 10 11 10 9 8 5 5 5 5 6 6 8 7 6 7 9
8 8 8 8 7 9 7 9 9 9 9 9 9 9 9 9 9 9 9 8 9 9 9 10 10 10 10 10 10 10 10 6 4 5 6 5 5 7 8 8 8 8
7 6 6 8 7 9 8 9 9 9 10 9 10 10 9 10 10 9 9 9 8 9 9 9 9 10 9 9 10 10 11 9 5 4 5 5 5 7 8 7 8 8
6 6 7 8 8 8 8 9 9 9 9 9 10 9 9 9 9 9 9 9 8 8 8 8 9 9 9 9 10 10 11 11 9 4 5 5 6 6 7 7 8 8
6 5 7 8 8 7 9 9 9 8 8 9 9 8 10 9 9 9 9 9 8 8 8 8 8 9 9 9 10 10 10 11 11 6 4 4 4 5 6 7 7 8
6 5 7 7 8 7 8 8 8 8 8 9 9 9 10 9 9 8 9 9 8 9 9 8 8 8 9 10 10 10 11 10 11 8 4 4 4 4 5 6 6 7
6 5 6 7 7 7 8 8 8 8 8 8 8 10 11 9 9 9 9 10 8 9 9 8 7 8 8 9 10 10 11 11 11 7 4 4 4 3 4 5 5 6
5 5 6 6 6 7 7 7 7 7 8 8 9 10 10 10 10 10 10 9 9 9 9 9 8 8 9 9 9 11 11 12 11 5 3 3 3 4 3 4 5 5
4 4 4 5 5 6 6 7 7 7 7 7 8 10 10 10 11 11 11 9 9 9 9 9 8 8 8 9 10 11 12 10 8 3 2 3 4 4 3 4 5 5
4 4 4 4 6 6 7 8 8 7 7 7 8 9 9 10 10 11 11 11 10 10 10 9 9 9 7 8 11 13 11 11 6 2 2 3 4 5 4 5 5 4
5 4 5 5 6 6 7 7 8 8 8 8 8 8 9 10 9 10 10 10 10 10 9 9 9 8 12 22 21 14 12 11 3 1 2 3 5 5 4 5 6 5
5 5 5 6 6 6 6 7 9 7 7 9 9 9 10 9 10 11 9 9 10 10 10 9 9 10 21 23 23 24 16 10 2 1 2 3 4 5 6 7 6 6
5 5 5 6 6 7 7 7 7 7 8 9 9 10 9 9 10 10 10 10 9 9 9 9 10 15 23 23 24 25 21 11 1 1 2 1 4 4 5 6 7 7
5 5 6 6 7 7 7 6 6 8 9 9 10 9 8 9 10 10 10 9 10 10 10 10 10 16 21 24 24 24 23 16 1 1 1 1 3 3 4 6 7 8
5 6 6 7 7 7 7 7 8 9 9 9 9 9 9 10 9 10 10 10 10 10 10 10 10 14 22 24 23 23 22 18 3 2 0 1 2 4 4 5 7 8
6 5 7 8 8 7 7 8 9 9 10 9 8 9 10 9 9 10 9 10 10 10 10 11 10 19 23 23 22 22 21 18 2 0 0 2 3 3 4 4 6 7
6 7 8 8 9 8 8 9 9 9 10 10 9 9 8 8 8 8 9 10 10 10 10 11 11 19 23 23 24 22 22 11 3 1 1 2 3 3 4 3 4 6
6 8 9 9 8 9 9 10 11 11 10 8 9 9 10 9 9 9 9 9 10 10 10 10 10 15 21 24 23 23 18 9 3 0 2 3 4 4 4 4 3 5
7 8 9 9 8 9 10 10 10 9 9 8 9 10 10 10 9 9 9 8 9 10 9 10 11 14 20 21 23 23 19 12 5 2 2 4 4 4 4 3 4 11
7 8 8 9 9 10 9 11 10 10 9 8 9 9 10 9 9 9 10 9 8 10 13 13 11 12 17 20 23 22 18 11 9 3 3 5 6 6 4 2 3 5
7 8 8 9 11 11 10 10 9 9 9 10 9 8 9 9 9 9 11 10 9 9 9 9 10 10 12 20 22 22 22 14 8 3 7 8 7 7 6 3 3 3
Wind_Direction
27 22 19 18 18 11 2 4 357 359 351 352 349 342 343 337 339 339 335 340 339 340 342 341 339 341 336 335 350 352 353 358 349 348 350 346 346 352 344 350 348 345
22 21 17 14 12 9 6 3 356 357 350 346 347 341 337 339 339 340 334 336 338 338 340 338 338 337 335 331 339 359 349 359 351 346 351 342 349 351 342 348 347 343
20 18 15 11 7 1 1 356 347 352 347 337 339 340 336 338 339 336 336 336 336 336 337 337 337 336 332 329 327 357 344 357 346 349 351 340 341 352 342 346 342 347
14 19 10 5 2 353 355 351 345 351 344 341 346 339 336 337 340 336 338 340 337 336 335 334 335 336 333 329 325 341 339 1 337 349 344 342 341 346 339 349 337 342
4 7 5 5 357 352 354 353 351 349 347 341 337 341 336 343 341 340 340 342 339 336 334 333 334 335 335 331 327 326 334 354 334 350 346 341 344 346 331 342 340 339
4 1 2 359 358 351 356 353 349 347 343 342 344 339 332 343 336 338 337 337 336 335 333 333 335 334 334 332 331 327 327 343 331 341 341 339 343 344 332 332 338 340
358 355 359 354 358 349 356 348 346 345 342 338 337 336 336 338 335 334 332 330 333 334 332 333 334 332 334 332 330 327 325 322 331 332 332 331 337 340 338 338 336 333
353 349 354 347 356 346 356 344 346 344 336 340 338 332 335 332 331 331 328 327 329 330 329 331 331 331 330 333 326 325 327 320 319 325 323 323 334 339 339 336 339 328
345 345 354 346 354 344 354 342 344 340 336 339 332 330 332 328 325 325 324 322 322 324 326 327 330 330 328 329 324 323 323 320 314 318 314 320 331 333 335 332 335 333
341 340 351 346 351 343 347 339 339 337 334 334 328 327 328 325 322 319 321 318 316 319 321 324 326 328 328 325 323 319 315 313 310 303 299 303 312 325 330 335 330 332
335 342 345 345 344 341 339 336 335 333 332 331 328 327 326 323 320 322 320 316 316 320 319 318 318 323 324 321 320 316 310 303 302 297 294 293 302 317 330 327 326 326
331 338 338 341 337 337 334 333 329 329 329 329 327 327 323 321 321 323 320 314 315 319 314 310 313 318 318 315 313 312 308 298 292 283 287 293 299 303 318 321 320 322
327 328 330 331 330 328 327 326 324 323 326 326 328 326 322 321 323 321 318 313 315 317 316 312 314 315 315 313 310 308 303 297 287 270 294 299 301 300 305 311 314 317
315 314 320 320 320 323 322 321 318 321 321 321 324 324 321 321 321 320 315 315 312 317 315 314 313 314 310 309 308 302 300 278 277 288 300 307 305 300 297 301 304 310
313 320 317 321 321 319 322 320 319 315 316 318 319 318 317 316 315 315 317 315 314 317 317 318 317 313 308 308 308 297 289 299 289 306 322 320 307 299 297 298 294 299
320 319 318 318 317 317 315 315 313 313 315 316 316 316 315 314 313 315 311 309 315 315 317 320 317 312 312 312 306 307 313 308 286 355 334 322 312 306 303 298 297 303
317 312 313 313 306 308 309 312 312 310 312 313 314 316 315 314 316 313 311 313 311 312 316 316 314 312 313 311 315 316 316 313 300 334 328 323 321 318 313 311 308 303
307 306 308 304 307 307 310 308 306 308 311 312 313 314 312 313 311 309 310 310 310 310 310 311 311 311 313 315 316 315 315 315 154 356 355 330 326 318 317 318 314 314
305 307 303 304 304 303 304 308 309 311 313 314 312 308 308 309 308 310 308 310 310 309 311 310 306 310 313 314 313 315 316 318 138 349 14 327 311 314 328 326 324 320
303 303 304 303 304 307 308 310 312 311 313 309 306 308 305 305 305 304 307 308 308 310 309 306 301 310 310 311 315 317 318 318 130 1 236 290 320 342 336 326 325 316
302 301 303 306 308 308 309 309 309 310 312 312 308 305 306 303 306 308 304 306 306 307 306 304 301 308 311 314 316 317 316 320 106 49 329 348 337 337 327 321 314 314
306 307 307 308 308 308 307 307 308 308 310 310 304 299 295 296 295 296 298 300 302 303 304 302 303 307 313 316 316 316 316 321 353 39 356 310 326 320 319 306 306 309
307 307 308 309 308 308 306 307 309 310 308 305 302 300 300 300 297 296 296 294 296 298 298 299 299 304 310 314 316 315 317 314 325 314 318 322 303 307 302 302 298 302
306 307 308 309 309 305 305 305 304 301 299 304 300 302 299 296 298 295 291 291 291 292 293 294 296 299 304 309 313 314 317 321 314 277 295 295 294 290 289 288 298 319
305 307 307 306 304 302 303 303 304 302 300 299 293 292 291 293 293 293 292 289 286 285 290 292 292 295 300 304 310 312 317 318 315 276 303 307 302 295 276 283 297 298
305 306 304 303 303 303 301 298 299 300 299 298 295 291 290 293 290 289 290 288 288 288 284 283 286 289 294 299 307 311 315 315 312 336 317 314 305 289 300 295 274 283